143  
ASUS43 KLMK 200110  
RWRKY  
KENTUCKY REGIONAL WEATHER ROUNDUP  
NATIONAL WEATHER SERVICE LOUISVILLE KY  
900 PM EDT WED SEP 19 2018  
 
NOTE "FAIR" INDICATES FEW OR NO CLOUDS BELOW 12,000 FEET  
WITH NO SIGNIFICANT WEATHER AND/OR S TO VISIBILITY
.  
 
KYZ001>023-026-027-061>063-070>075-200200-  
WESTERN AND SOUTH CENTRAL KENTUCKY  
 
CITY SKY/WX TMP DP RH WIND PRES REMARKS
 
PADUCAH FAIR 76 73 91 CALM 29.96R  
HENDERSON FAIR 76 71 85 CALM 29.98R  
OWENSBORO FAIR 82 73 74 NW5 29.98R  
HOPKINSVILLE NOT AVBL  
BOWLING GREEN FAIR 83 70 64 CALM 29.98S  
GLASGOW FAIR 78 70 76 CALM 30.00R  

 
 
KYZ024-025-028>034-038-045-046-053-200200-  
NORTH CENTRAL KENTUCKY  
 
CITY SKY/WX TMP DP RH WIND PRES REMARKS
 
LOUISVILLE/SDF MOCLDY 86 69 56 E5 29.98S HX 90  
LOUISVILLE/LOU FAIR 83 75 77 CALM 29.99R HX 90  
FORT KNOX NOT AVBL  

 
 
KYZ035>037-039>044-047>052-055>060-089>105-200200-  
NORTHEAST KENTUCKY  
 
CITY SKY/WX TMP DP RH WIND PRES REMARKS
 
LEXINGTON FAIR 77 71 82 SE3 30.03R  
COVINGTON FAIR 76 71 85 CALM 30.01S  
FRANKFORT FAIR 76 72 87 CALM 30.01R  

 
 
KYZ054-064>069-076>088-106>120-200200-  
SOUTHEAST KENTUCKY  
 
CITY SKY/WX TMP DP RH WIND PRES REMARKS
 
JACKSON FAIR 79 67 66 CALM 30.06R  
LONDON FAIR 75 73 93 CALM 30.05R  
SOMERSET FAIR 73 73 100 CALM 30.05R  
MIDDLESBORO FAIR 74 70 88 CALM 30.07R  
MONTICELLO FAIR 73 69 87 VRB7 30.05R  

 
 
 
 
CLICK HERE TO GO TO PREVIOUS BULLETINS.

The Nexlab KY Page Main Text Page